sat.trackr.live / text

‹ back to catalog

LEMUR-2-BASS

NORAD 58259 · 2023-174D

PAYLOAD ACTIVE UNKNOWN

§ Identity

Operator
Country
US
Launch date
2023-11-11
Launch site
AFWTR
Launch vehicle
Mass (kg)
RCS (m²)

Purposes: earth_obs

External: N2YO · Heavens-Above · Gunter

§ Orbital elements

Epoch: 2026-05-25T04:24:10.039392Z

Period
93.37 min
Inclination
97.3846°
Eccentricity
0.0005909
Mean motion
15.42231317 rev/d
Perigee alt
435.5 km
Apogee alt
443.6 km
Semi-major
6,817.7 km
B*
3.9504e-4
RAAN
229.5895°
Arg perigee
242.8442°
Mean anomaly
117.2203°
Rev number
14,181

§ Raw data

LEMUR-2-BASS1 58259U 23174D   26145.18344953  .00016907  00000+0  39504-3 0  99972 58259  97.3846 229.5895 0005909 242.8442 117.2203 15.42231317141817

JSON: /api/v1/satellites/58259 · /tle

For live sub-satellite position, see the globe view (requires WebGL).

§ Visibility from observer

Set your observer location to see the next 7 days of passes ≥ 10°. The values pass through the URL so the page stays shareable.

No JS? Fill the form by hand. The geolocation button needs JavaScript.